Retour au catalogue

DELTA 1 DEB

ActifPO
NORAD 21327·DEBRIS·🇺🇸 United States

Lancé Jun 12, 1975 depuis Vandenberg Space Force Base

Loading…

Prochains Passages (prochaines 24 heures)

TLE

FraisSource: Space-Track

Époque: Sep 14, 2026, 14:47 UTC

1 21327U 75052AV  26257.61615926 -.00000066  00000-0 -96600-4 0  9991
2 21327  99.7315 149.8403 0281127  52.0051  61.9008 12.90043248662690

Suivez DELTA 1 DEB en temps réel avec AllMySat

Download on the App Store